Location: Newark
(44.2003°N, 3.2583°E)
Time: 16:01:15
(UTC+00:00)

Transit 4A - All Passes

Search period start: 22 October 2019 00:00
Search period end: 01 November 2019 00:00
Orbit: 867 x 978 km, 66.8° (Epoch: 21 October)

Date Brightness Start Highest point End Pass type
(mag) Time Alt. Az. Time Alt. Az. Time Alt. Az.
22 Oct - 02:36:43 10° SSE 02:41:03 20° ESE 02:45:20 10° ENE visible
22 Oct - 04:20:23 10° SW 04:26:45 78° WNW 04:33:01 10° NNE visible
22 Oct - 06:09:37 10° W 06:14:07 20° NW 06:18:35 10° N daylight
22 Oct - 09:52:05 10° N 09:52:58 10° NNE 09:53:51 10° NNE daylight
22 Oct - 11:36:09 10° NNW 11:41:28 31° NE 11:46:39 10° ESE daylight
22 Oct - 13:22:19 10° NW 13:28:06 53° WSW 13:33:45 10° S daylight
23 Oct - 02:44:49 10° SSE 02:50:07 29° ESE 02:55:22 10° NE visible
23 Oct - 04:29:56 10° SW 04:36:10 56° NW 04:42:17 10° NNE visible
23 Oct - 06:20:16 10° WNW 06:23:56 16° NNW 06:27:34 10° N daylight
23 Oct - 10:00:23 10° N 10:02:55 13° NNE 10:05:26 10° NE daylight
23 Oct - 11:45:20 10° NNW 11:51:02 42° NE 11:56:34 10° ESE daylight
23 Oct - 13:31:55 10° NW 13:37:17 36° WSW 13:42:31 10° S daylight
24 Oct - 02:53:23 10° S 02:59:17 42° ESE 03:05:05 10° NE visible
24 Oct - 04:39:44 10° WSW 04:45:40 41° NW 04:51:31 10° NNE visible
24 Oct - 06:31:13 10° NW 06:33:49 13° NNW 06:36:24 10° N daylight
24 Oct - 10:09:14 10° N 10:12:48 16° NNE 10:16:19 10° ENE daylight
24 Oct - 11:54:34 10° NNW 12:00:31 59° NE 12:06:16 10° SE daylight
24 Oct - 13:41:45 10° NW 13:46:22 24° WSW 13:50:55 10° SSW daylight
25 Oct - 03:02:17 10° SSW 03:08:30 60° ESE 03:14:38 10° NE visible
25 Oct - 04:49:45 10° WSW 04:55:15 31° NW 05:00:41 10° NNE visible
25 Oct - 06:42:55 10° NNW 06:43:48 10° NNW 06:44:41 10° N daylight
25 Oct - 10:18:15 10° N 10:22:36 20° NE 10:26:52 10° E daylight
25 Oct - 12:03:53 10° NNW 12:09:54 84° ENE 12:15:44 10° SSE daylight
25 Oct - 13:52:01 10° WNW 13:55:24 16° WSW 13:58:44 10° SW daylight
26 Oct - 01:28:58 10° SE 01:32:19 15° ESE 01:35:37 10° ENE visible
26 Oct - 03:11:26 10° SSW 03:17:48 85° ESE 03:24:03 10° NNE visible
26 Oct - 05:00:00 10° W 05:04:56 23° NW 05:09:47 10° NNE visible
26 Oct - 10:27:20 10° NNW 10:32:18 26° NE 10:37:11 10° E daylight
26 Oct - 12:13:16 10° NW 12:19:12 68° WSW 12:24:58 10° SSE daylight
27 Oct - 01:36:36 10° SSE 01:41:20 23° ESE 01:46:01 10° ENE visible
27 Oct - 03:20:51 10° SW 03:27:10 69° NW 03:33:22 10° NNE visible
27 Oct - 05:10:28 10° WNW 05:14:41 18° NW 05:18:50 10° N visible
27 Oct - 08:51:59 10° N 08:53:35 11° NNE 08:55:10 10° NE daylight
27 Oct - 10:36:29 10° NNW 10:41:56 35° NE 10:47:15 10° ESE daylight
27 Oct - 12:22:46 10° NW 12:28:26 46° WSW 12:33:56 10° S daylight
28 Oct - 01:44:54 10° S 01:50:26 33° ESE 01:55:55 10° NE visible
28 Oct - 03:30:29 10° SW 03:36:36 50° NW 03:42:38 10° NNE visible
28 Oct - 05:21:13 10° WNW 05:24:31 14° NNW 05:27:46 10° N visible
28 Oct - 09:00:35 10° N 09:03:30 14° NNE 09:06:23 10° ENE daylight
28 Oct - 10:45:41 10° NNW 10:51:28 48° NE 10:57:05 10° SE daylight
28 Oct - 12:32:28 10° NW 12:37:34 31° WSW 12:42:36 10° S daylight
29 Oct - 01:53:35 10° S 01:59:37 48° ESE 02:05:33 10° NE visible
29 Oct - 03:40:21 10° WSW 03:46:08 37° NW 03:51:49 10° NNE visible
29 Oct - 05:32:21 10° NW 05:34:26 12° NNW 05:36:30 10° N visible
29 Oct - 09:09:31 10° N 09:13:21 17° NNE 09:17:08 10° ENE daylight
29 Oct - 10:54:57 10° NNW 11:00:55 68° NE 11:06:42 10° SE daylight
29 Oct - 12:42:24 10° WNW 12:46:38 21° WSW 12:50:49 10° SSW daylight
30 Oct - 00:22:04 10° ESE 00:23:36 11° E 00:25:06 10° E visible
30 Oct - 02:02:34 10° SSW 02:08:52 69° ESE 02:15:03 10° NE visible
30 Oct - 03:50:27 10° W 03:55:45 28° NW 04:00:58 10° NNE visible
30 Oct - 09:18:32 10° NNW 09:23:07 22° NE 09:27:36 10° E daylight
30 Oct - 11:04:17 10° NNW 11:10:16 86° WSW 11:16:06 10° SSE daylight
30 Oct - 12:52:59 10° WNW 12:55:39 13° WSW 12:58:16 10° SW daylight
31 Oct - 00:28:38 10° SE 00:32:34 17° ESE 00:36:28 10° ENE visible
31 Oct - 02:11:50 10° SSW 02:18:11 85° WNW 02:24:25 10° NNE visible
31 Oct - 04:00:47 10° W 04:05:27 21° NW 04:10:03 10° N visible
31 Oct - 09:27:39 10° NNW 09:32:48 29° NE 09:37:49 10° ESE daylight
31 Oct - 11:13:42 10° NW 11:19:32 59° WSW 11:25:14 10° SSE daylight
